Time,TemperatureF,DewpointF,PressureIn,WindDirection,WindDirectionDegrees,WindSpeedMPH,WindSpeedGustMPH,Humidity,HourlyPrecipIn,Conditions,Clouds,dailyrainin,SoftwareType,DateUTC
2013-03-02 00:00:00,22.5,19.8,30.06,WNW,301,2.0,8.0,89,0.00,,,0.00,meteohub,2013-03-02 05:00:00,
2013-03-02 00:01:00,22.5,19.8,30.06,WNW,301,2.0,8.0,89,0.00,,,0.00,meteohub,2013-03-02 05:01:00,
2013-03-02 00:02:00,22.5,19.8,30.06,North,0,0.0,8.0,89,0.00,,,0.00,meteohub,2013-03-02 05:02:00,
2013-03-02 00:07:00,22.3,19.6,30.06,NE,36,2.0,8.0,89,0.00,,,0.00,meteohub,2013-03-02 05:07:00,
2013-03-02 00:12:00,22.1,19.4,30.06,NNE,12,3.0,8.0,89,0.00,,,0.00,meteohub,2013-03-02 05:12:00,
2013-03-02 00:17:00,21.9,18.9,30.06,NNE,27,5.0,7.0,88,0.00,,,0.00,meteohub,2013-03-02 05:17:00,
2013-03-02 00:22:00,21.9,18.9,30.06,NNW,329,5.0,9.0,88,0.00,,,0.00,meteohub,2013-03-02 05:22:00,
2013-03-02 00:27:00,21.9,18.9,30.06,NE,54,1.0,9.0,88,0.00,,,0.00,meteohub,2013-03-02 05:27:00,
2013-03-02 00:32:00,21.9,18.9,30.06,ENE,59,4.0,8.0,88,0.00,,,0.00,meteohub,2013-03-02 05:32:00,
2013-03-02 00:37:00,21.7,18.7,30.06,NE,34,2.0,8.0,88,0.00,,,0.00,meteohub,2013-03-02 05:37:00,
2013-03-02 00:43:00,21.7,18.7,30.06,NE,37,1.0,8.0,88,0.00,,,0.00,meteohub,2013-03-02 05:43:00,
2013-03-02 00:48:00,21.7,18.7,30.06,NE,49,1.0,8.0,88,0.00,,,0.00,meteohub,2013-03-02 05:48:00,
2013-03-02 00:53:00,21.7,18.7,30.06,NNW,343,2.0,5.0,88,0.00,,,0.00,meteohub,2013-03-02 05:53:00,
2013-03-02 00:58:00,21.7,18.7,30.06,North,355,5.0,8.0,88,0.00,,,0.00,meteohub,2013-03-02 05:58:00,
2013-03-02 01:03:00,21.6,18.5,30.06,NNE,19,6.0,9.0,88,0.00,,,0.00,meteohub,2013-03-02 06:03:00,
2013-03-02 01:08:00,21.6,18.5,30.06,North,355,0.0,9.0,88,0.00,,,0.00,meteohub,2013-03-02 06:08:00,
2013-03-02 01:13:00,21.6,18.5,30.06,North,5,2.0,7.0,88,0.00,,,0.00,meteohub,2013-03-02 06:13:00,
2013-03-02 01:18:00,21.6,18.5,30.05,ENE,68,2.0,9.0,88,0.00,,,0.00,meteohub,2013-03-02 06:18:00,
2013-03-02 01:23:00,21.6,18.5,30.06,NE,46,3.0,9.0,88,0.00,,,0.00,meteohub,2013-03-02 06:23:00,
2013-03-02 01:28:00,21.6,18.5,30.06,NE,45,2.0,9.0,88,0.00,,,0.00,meteohub,2013-03-02 06:28:00,
2013-03-02 01:34:00,21.6,18.5,30.06,NW,322,2.0,8.0,88,0.00,,,0.00,meteohub,2013-03-02 06:34:00,
2013-03-02 01:39:00,21.6,18.5,30.06,ENE,67,3.0,7.0,88,0.00,,,0.00,meteohub,2013-03-02 06:39:00,
2013-03-02 01:44:00,21.6,18.5,30.06,NW,325,2.0,9.0,88,0.00,,,0.00,meteohub,2013-03-02 06:44:00,
2013-03-02 01:49:00,21.6,18.9,30.06,North,9,2.0,9.0,89,0.00,,,0.00,meteohub,2013-03-02 06:49:00,
2013-03-02 01:54:00,21.6,18.9,30.06,East,79,1.0,9.0,89,0.00,,,0.00,meteohub,2013-03-02 06:54:00,
2013-03-02 01:59:00,21.6,18.9,30.05,North,355,2.0,6.0,89,0.00,,,0.00,meteohub,2013-03-02 06:59:00,
2013-03-02 02:04:00,21.6,18.9,30.05,NE,36,2.0,6.0,89,0.00,,,0.00,meteohub,2013-03-02 07:04:00,
2013-03-02 02:09:00,21.6,18.9,30.05,ENE,63,7.0,7.0,89,0.00,,,0.00,meteohub,2013-03-02 07:09:00,
2013-03-02 02:14:00,21.6,18.9,30.05,NNE,20,2.0,5.0,89,0.00,,,0.00,meteohub,2013-03-02 07:14:00,
2013-03-02 02:19:00,21.6,18.9,30.05,NNE,13,0.0,8.0,89,0.00,,,0.00,meteohub,2013-03-02 07:19:00,
2013-03-02 02:24:00,21.6,18.9,30.05,NE,39,5.0,8.0,89,0.00,,,0.00,meteohub,2013-03-02 07:24:00,
2013-03-02 02:29:00,21.7,19.0,30.05,East,94,3.0,8.0,89,0.00,,,0.00,meteohub,2013-03-02 07:29:00,
2013-03-02 02:34:00,21.7,19.0,30.05,NE,39,1.0,6.0,89,0.00,,,0.00,meteohub,2013-03-02 07:34:00,
2013-03-02 02:39:00,21.7,19.0,30.04,North,355,2.0,6.0,89,0.00,,,0.00,meteohub,2013-03-02 07:39:00,
2013-03-02 02:45:00,21.7,19.0,30.04,North,349,0.0,7.0,89,0.00,,,0.00,meteohub,2013-03-02 07:45:00,
2013-03-02 02:50:00,21.7,19.0,30.05,North,5,4.0,8.0,89,0.00,,,0.00,meteohub,2013-03-02 07:50:00,
2013-03-02 02:55:00,21.7,19.0,30.04,NE,36,5.0,8.0,89,0.00,,,0.00,meteohub,2013-03-02 07:55:00,
2013-03-02 03:00:00,21.7,19.0,30.04,North,0,3.0,8.0,89,0.00,,,0.00,meteohub,2013-03-02 08:00:00,
2013-03-02 03:05:00,21.7,19.0,30.04,North,0,1.0,8.0,89,0.00,,,0.00,meteohub,2013-03-02 08:05:00,
2013-03-02 03:10:00,21.7,19.0,30.04,ENE,69,4.0,8.0,89,0.00,,,0.00,meteohub,2013-03-02 08:10:00,
2013-03-02 03:15:00,21.7,19.0,30.04,NNW,346,0.0,6.0,89,0.00,,,0.00,meteohub,2013-03-02 08:15:00,
2013-03-02 03:20:00,21.7,19.0,30.04,NNE,26,2.0,6.0,89,0.00,,,0.00,meteohub,2013-03-02 08:20:00,
2013-03-02 03:25:00,21.7,19.0,30.04,NNE,29,2.0,7.0,89,0.00,,,0.00,meteohub,2013-03-02 08:25:00,
2013-03-02 03:30:00,21.7,19.0,30.04,NE,56,0.0,7.0,89,0.00,,,0.00,meteohub,2013-03-02 08:30:00,
2013-03-02 03:35:00,21.7,19.0,30.04,ENE,57,0.0,7.0,89,0.00,,,0.00,meteohub,2013-03-02 08:35:00,
2013-03-02 03:41:00,21.7,19.0,30.04,ENE,57,1.0,3.0,89,0.00,,,0.00,meteohub,2013-03-02 08:41:00,
2013-03-02 03:46:00,21.7,19.0,30.04,NNE,31,0.0,3.0,89,0.00,,,0.00,meteohub,2013-03-02 08:46:00,
2013-03-02 03:51:00,21.7,19.0,30.04,NNE,28,2.0,5.0,89,0.00,,,0.00,meteohub,2013-03-02 08:51:00,
2013-03-02 03:56:00,21.7,19.0,30.04,NE,40,3.0,5.0,89,0.00,,,0.00,meteohub,2013-03-02 08:56:00,
2013-03-02 04:01:00,21.7,19.0,30.04,NNE,12,0.0,8.0,89,0.00,,,0.00,meteohub,2013-03-02 09:01:00,
2013-03-02 04:06:00,21.7,19.0,30.04,NNW,336,3.0,8.0,89,0.00,,,0.00,meteohub,2013-03-02 09:06:00,
2013-03-02 04:11:00,21.7,19.0,30.04,NNE,15,1.0,8.0,89,0.00,,,0.00,meteohub,2013-03-02 09:11:00,
2013-03-02 04:16:00,21.7,19.0,30.03,NE,45,1.0,7.0,89,0.00,,,0.00,meteohub,2013-03-02 09:16:00,
2013-03-02 04:21:00,21.7,19.2,30.03,ENE,59,3.0,7.0,90,0.00,,,0.00,meteohub,2013-03-02 09:21:00,
2013-03-02 04:26:00,21.7,19.2,30.03,ENE,59,1.0,7.0,90,0.00,,,0.00,meteohub,2013-03-02 09:26:00,
2013-03-02 04:31:00,21.6,19.0,30.04,North,5,3.0,4.0,90,0.00,,,0.00,meteohub,2013-03-02 09:31:00,
2013-03-02 04:36:00,21.6,19.0,30.04,NNE,15,1.0,7.0,90,0.00,,,0.00,meteohub,2013-03-02 09:36:00,
2013-03-02 04:41:00,21.4,18.7,30.04,NE,49,0.0,7.0,89,0.00,,,0.00,meteohub,2013-03-02 09:41:00,
2013-03-02 04:47:00,21.4,18.7,30.04,NNW,344,0.0,7.0,89,0.00,,,0.00,meteohub,2013-03-02 09:47:00,
2013-03-02 04:52:00,21.4,18.7,30.03,NNE,32,2.0,5.0,89,0.00,,,0.00,meteohub,2013-03-02 09:52:00,
2013-03-02 04:57:00,21.4,18.7,30.03,NNE,32,3.0,5.0,89,0.00,,,0.00,meteohub,2013-03-02 09:57:00,
2013-03-02 05:02:00,21.2,18.5,30.03,NNE,16,2.0,6.0,89,0.00,,,0.00,meteohub,2013-03-02 10:02:00,
2013-03-02 05:07:00,21.2,18.5,30.04,North,355,1.0,6.0,89,0.00,,,0.00,meteohub,2013-03-02 10:07:00,
2013-03-02 05:13:00,21.2,18.5,30.04,NNW,336,2.0,6.0,89,0.00,,,0.00,meteohub,2013-03-02 10:13:00,
2013-03-02 05:18:00,21.0,18.3,30.04,North,350,2.0,4.0,89,0.00,,,0.00,meteohub,2013-03-02 10:18:00,
2013-03-02 05:23:00,21.0,18.5,30.04,North,9,2.0,4.0,90,0.00,,,0.00,meteohub,2013-03-02 10:23:00,
2013-03-02 05:28:00,21.0,18.5,30.04,North,355,1.0,4.0,90,0.00,,,0.00,meteohub,2013-03-02 10:28:00,
2013-03-02 05:33:00,21.0,18.5,30.04,NNE,13,1.0,4.0,90,0.00,,,0.00,meteohub,2013-03-02 10:33:00,
2013-03-02 05:38:00,21.0,18.5,30.04,NNE,27,5.0,5.0,90,0.00,,,0.00,meteohub,2013-03-02 10:38:00,
2013-03-02 05:43:00,21.0,18.5,30.04,North,0,1.0,5.0,90,0.00,,,0.00,meteohub,2013-03-02 10:43:00,
2013-03-02 05:48:00,21.0,18.5,30.04,North,349,2.0,5.0,90,0.00,,,0.00,meteohub,2013-03-02 10:48:00,
2013-03-02 05:54:00,21.0,18.5,30.04,NNE,15,1.0,6.0,90,0.00,,,0.00,meteohub,2013-03-02 10:54:00,
2013-03-02 05:59:00,21.0,18.5,30.04,NNE,13,2.0,6.0,90,0.00,,,0.00,meteohub,2013-03-02 10:59:00,
2013-03-02 06:04:00,21.0,18.5,30.04,NNW,348,2.0,6.0,90,0.00,,,0.00,meteohub,2013-03-02 11:04:00,
2013-03-02 06:09:00,21.0,18.9,30.04,North,355,3.0,4.0,91,0.00,,,0.00,meteohub,2013-03-02 11:09:00,
2013-03-02 06:14:00,20.8,18.7,30.04,North,5,4.0,4.0,91,0.00,,,0.00,meteohub,2013-03-02 11:14:00,
2013-03-02 06:19:00,20.8,18.7,30.04,NNE,15,3.0,4.0,91,0.00,,,0.00,meteohub,2013-03-02 11:19:00,
2013-03-02 06:24:00,20.8,18.7,30.04,NNW,342,1.0,4.0,91,0.00,,,0.00,meteohub,2013-03-02 11:24:00,
2013-03-02 06:29:00,20.8,18.7,30.04,NNW,329,1.0,5.0,91,0.00,,,0.00,meteohub,2013-03-02 11:29:00,
2013-03-02 06:34:00,20.8,18.7,30.04,NNW,345,2.0,5.0,91,0.00,,,0.00,meteohub,2013-03-02 11:34:00,
2013-03-02 06:39:00,21.0,18.9,30.04,NNW,345,2.0,4.0,91,0.00,,,0.00,meteohub,2013-03-02 11:39:00,
2013-03-02 06:44:00,21.0,18.9,30.04,NNW,342,1.0,4.0,91,0.00,,,0.00,meteohub,2013-03-02 11:44:00,
2013-03-02 06:49:00,21.0,18.9,30.04,NNW,346,0.0,4.0,91,0.00,,,0.00,meteohub,2013-03-02 11:49:00,
2013-03-02 06:54:00,21.0,18.9,30.04,NE,52,1.0,4.0,91,0.00,,,0.00,meteohub,2013-03-02 11:54:00,
2013-03-02 07:00:00,21.0,18.9,30.04,North,350,3.0,5.0,91,0.00,,,0.00,meteohub,2013-03-02 12:00:00,
2013-03-02 07:05:00,21.0,18.9,30.04,North,355,1.0,6.0,91,0.00,,,0.00,meteohub,2013-03-02 12:05:00,
2013-03-02 07:10:00,21.0,18.9,30.04,NNW,341,3.0,6.0,91,0.00,,,0.00,meteohub,2013-03-02 12:10:00,
2013-03-02 07:15:00,21.0,18.9,30.04,North,11,2.0,6.0,91,0.00,,,0.00,meteohub,2013-03-02 12:15:00,
2013-03-02 07:20:00,21.0,18.9,30.04,NNW,343,3.0,8.0,91,0.00,,,0.00,meteohub,2013-03-02 12:20:00,
2013-03-02 07:25:00,21.0,18.9,30.04,WNW,293,0.0,8.0,91,0.00,,,0.00,meteohub,2013-03-02 12:25:00,
2013-03-02 07:30:00,21.0,18.9,30.04,North,355,2.0,8.0,91,0.00,,,0.00,meteohub,2013-03-02 12:30:00,
2013-03-02 07:35:00,21.0,18.9,30.04,NNE,15,2.0,5.0,91,0.00,,,0.00,meteohub,2013-03-02 12:35:00,
2013-03-02 07:40:00,21.0,18.9,30.04,North,350,1.0,5.0,91,0.00,,,0.00,meteohub,2013-03-02 12:40:00,
2013-03-02 07:45:00,21.0,18.9,30.04,NE,34,0.0,5.0,91,0.00,,,0.00,meteohub,2013-03-02 12:45:00,
2013-03-02 07:50:00,21.2,19.0,30.05,NNE,20,2.0,5.0,91,0.00,,,0.00,meteohub,2013-03-02 12:50:00,
2013-03-02 07:55:00,21.4,19.2,30.04,NNE,13,1.0,6.0,91,0.00,,,0.00,meteohub,2013-03-02 12:55:00,
2013-03-02 08:00:00,21.4,19.2,30.05,NNE,16,2.0,6.0,91,0.00,,,0.00,meteohub,2013-03-02 13:00:00,
2013-03-02 08:06:00,21.6,19.4,30.05,NNE,30,0.0,6.0,91,0.00,,,0.00,meteohub,2013-03-02 13:06:00,
2013-03-02 08:11:00,21.6,19.4,30.05,East,94,9.0,9.0,91,0.00,,,0.00,meteohub,2013-03-02 13:11:00,
2013-03-02 08:16:00,21.6,19.4,30.05,ENE,61,2.0,9.0,91,0.00,,,0.00,meteohub,2013-03-02 13:16:00,
2013-03-02 08:21:00,21.6,19.4,30.05,NNW,346,0.0,9.0,91,0.00,,,0.00,meteohub,2013-03-02 13:21:00,
2013-03-02 08:26:00,21.6,19.4,30.05,North,5,3.0,9.0,91,0.00,,,0.00,meteohub,2013-03-02 13:26:00,
2013-03-02 08:31:00,21.6,19.4,30.05,NNE,23,1.0,6.0,91,0.00,,,0.00,meteohub,2013-03-02 13:31:00,
2013-03-02 08:36:00,21.7,19.2,30.05,North,9,1.0,6.0,90,0.00,,,0.00,meteohub,2013-03-02 13:36:00,
2013-03-02 08:41:00,21.7,19.2,30.05,ENE,71,0.0,5.0,90,0.00,,,0.00,meteohub,2013-03-02 13:41:00,
2013-03-02 08:46:00,21.7,19.0,30.05,North,5,2.0,4.0,89,0.00,,,0.00,meteohub,2013-03-02 13:46:00,
2013-03-02 08:51:00,21.9,19.2,30.05,NE,36,1.0,5.0,89,0.00,,,0.00,meteohub,2013-03-02 13:51:00,
2013-03-02 08:56:00,21.9,19.2,30.05,NNE,24,2.0,6.0,89,0.00,,,0.00,meteohub,2013-03-02 13:56:00,
2013-03-02 09:01:00,21.9,19.2,30.04,ENE,62,1.0,6.0,89,0.00,,,0.00,meteohub,2013-03-02 14:01:00,
2013-03-02 09:06:00,21.9,19.2,30.05,NE,44,1.0,6.0,89,0.00,,,0.00,meteohub,2013-03-02 14:06:00,
2013-03-02 09:11:00,22.1,19.4,30.05,NNW,337,3.0,6.0,89,0.00,,,0.00,meteohub,2013-03-02 14:11:00,
2013-03-02 09:16:00,22.1,19.4,30.05,NE,55,1.0,6.0,89,0.00,,,0.00,meteohub,2013-03-02 14:16:00,
2013-03-02 09:21:00,22.3,19.6,30.05,NE,55,1.0,8.0,89,0.00,,,0.00,meteohub,2013-03-02 14:21:00,
2013-03-02 09:26:00,22.3,19.6,30.05,NNE,19,3.0,8.0,89,0.00,,,0.00,meteohub,2013-03-02 14:26:00,
2013-03-02 09:32:00,22.5,19.4,30.05,North,9,4.0,8.0,88,0.00,,,0.00,meteohub,2013-03-02 14:32:00,
2013-03-02 09:37:00,22.5,19.4,30.05,NE,55,2.0,9.0,88,0.00,,,0.00,meteohub,2013-03-02 14:37:00,
2013-03-02 09:42:00,22.6,19.4,30.05,ENE,74,3.0,9.0,87,0.00,,,0.00,meteohub,2013-03-02 14:42:00,
2013-03-02 09:47:00,22.8,19.6,30.05,NE,44,2.0,8.0,87,0.00,,,0.00,meteohub,2013-03-02 14:47:00,
2013-03-02 09:52:00,22.8,19.2,30.04,NNE,19,2.0,7.0,86,0.00,,,0.00,meteohub,2013-03-02 14:52:00,
2013-03-02 09:57:00,22.8,19.2,30.05,North,355,2.0,7.0,86,0.00,,,0.00,meteohub,2013-03-02 14:57:00,
2013-03-02 10:02:00,22.8,19.2,30.05,East,87,5.0,7.0,86,0.00,,,0.00,meteohub,2013-03-02 15:02:00,
2013-03-02 10:07:00,22.6,19.0,30.05,NNW,348,3.0,7.0,86,0.00,,,0.00,meteohub,2013-03-02 15:07:00,
2013-03-02 10:12:00,22.6,19.0,30.05,NNW,342,2.0,8.0,86,0.00,,,0.00,meteohub,2013-03-02 15:12:00,
2013-03-02 10:17:00,22.8,19.0,30.05,North,5,3.0,8.0,85,0.00,,,0.00,meteohub,2013-03-02 15:17:00,
2013-03-02 10:22:00,23.0,19.2,30.05,NNW,345,4.0,8.0,85,0.00,,,0.00,meteohub,2013-03-02 15:22:00,
2013-03-02 10:27:00,22.8,19.0,30.05,NE,44,2.0,7.0,85,0.00,,,0.00,meteohub,2013-03-02 15:27:00,
2013-03-02 10:32:00,22.6,18.9,30.05,NW,315,2.0,7.0,85,0.00,,,0.00,meteohub,2013-03-02 15:32:00,
2013-03-02 10:37:00,22.6,18.9,30.05,ENE,71,5.0,10.0,85,0.00,,,0.00,meteohub,2013-03-02 15:37:00,
2013-03-02 10:42:00,22.5,18.7,30.06,NNW,342,4.0,10.0,85,0.00,,,0.00,meteohub,2013-03-02 15:42:00,
2013-03-02 10:47:00,22.3,18.5,30.05,East,91,6.0,11.0,85,0.00,,,0.00,meteohub,2013-03-02 15:47:00,
2013-03-02 10:52:00,22.1,18.5,30.05,NNE,25,3.0,11.0,86,0.00,,,0.00,meteohub,2013-03-02 15:52:00,
2013-03-02 10:57:00,22.1,18.5,30.06,NNE,24,2.0,11.0,86,0.00,,,0.00,meteohub,2013-03-02 15:57:00,
2013-03-02 11:02:00,21.9,18.3,30.05,NNE,21,3.0,8.0,86,0.00,,,0.00,meteohub,2013-03-02 16:02:00,
2013-03-02 11:07:00,21.9,18.3,30.06,NNW,331,3.0,8.0,86,0.00,,,0.00,meteohub,2013-03-02 16:07:00,
2013-03-02 11:12:00,21.9,18.3,30.06,North,5,4.0,8.0,86,0.00,,,0.00,meteohub,2013-03-02 16:12:00,
2013-03-02 11:17:00,21.7,18.1,30.06,NNW,345,8.0,9.0,86,0.00,,,0.00,meteohub,2013-03-02 16:17:00,
2013-03-02 11:23:00,21.4,18.1,30.06,NNW,347,6.0,9.0,87,0.00,,,0.00,meteohub,2013-03-02 16:23:00,
2013-03-02 11:28:00,21.4,18.1,30.06,NNW,346,6.0,13.0,87,0.00,,,0.00,meteohub,2013-03-02 16:28:00,
2013-03-02 11:33:00,21.6,18.5,30.06,NW,317,2.0,13.0,88,0.00,,,0.00,meteohub,2013-03-02 16:33:00,
2013-03-02 11:38:00,21.4,18.1,30.06,ENE,65,1.0,13.0,87,0.00,,,0.00,meteohub,2013-03-02 16:38:00,
2013-03-02 11:43:00,21.4,18.1,30.06,ENE,57,1.0,10.0,87,0.00,,,0.00,meteohub,2013-03-02 16:43:00,
2013-03-02 11:48:00,21.6,18.3,30.06,North,5,4.0,10.0,87,0.00,,,0.00,meteohub,2013-03-02 16:48:00,
2013-03-02 11:53:00,21.6,18.3,30.06,ENE,68,7.0,9.0,87,0.00,,,0.00,meteohub,2013-03-02 16:53:00,
2013-03-02 11:58:00,21.6,18.3,30.06,ENE,59,1.0,9.0,87,0.00,,,0.00,meteohub,2013-03-02 16:58:00,
2013-03-02 12:03:00,21.6,18.3,30.06,ENE,72,0.0,7.0,87,0.00,,,0.00,meteohub,2013-03-02 17:03:00,
2013-03-02 12:08:00,21.7,18.5,30.06,North,351,6.0,7.0,87,0.00,,,0.00,meteohub,2013-03-02 17:08:00,
2013-03-02 12:13:00,21.7,18.5,30.06,ENE,76,3.0,8.0,87,0.00,,,0.00,meteohub,2013-03-02 17:13:00,
2013-03-02 12:18:00,21.6,18.3,30.06,ENE,76,5.0,8.0,87,0.00,,,0.00,meteohub,2013-03-02 17:18:00,
2013-03-02 12:24:00,21.7,18.5,30.05,NNW,338,5.0,10.0,87,0.00,,,0.00,meteohub,2013-03-02 17:24:00,
2013-03-02 12:29:00,21.7,18.5,30.05,NNE,20,4.0,10.0,87,0.00,,,0.00,meteohub,2013-03-02 17:29:00,
2013-03-02 12:34:00,21.9,18.7,30.05,NW,326,4.0,10.0,87,0.00,,,0.00,meteohub,2013-03-02 17:34:00,
2013-03-02 12:39:00,22.3,19.0,30.05,East,84,6.0,9.0,87,0.00,,,0.00,meteohub,2013-03-02 17:39:00,
2013-03-02 12:44:00,22.3,19.0,30.05,East,79,2.0,9.0,87,0.00,,,0.00,meteohub,2013-03-02 17:44:00,
2013-03-02 12:49:00,22.3,19.0,30.05,ENE,65,4.0,8.0,87,0.00,,,0.00,meteohub,2013-03-02 17:49:00,
2013-03-02 12:54:00,22.5,19.2,30.05,North,5,4.0,8.0,87,0.00,,,0.00,meteohub,2013-03-02 17:54:00,
2013-03-02 12:59:00,22.5,18.9,30.05,NE,54,2.0,8.0,86,0.00,,,0.00,meteohub,2013-03-02 17:59:00,
2013-03-02 13:04:00,22.5,18.9,30.05,NNE,27,3.0,7.0,86,0.00,,,0.00,meteohub,2013-03-02 18:04:00,
2013-03-02 13:09:00,22.5,18.9,30.04,NE,35,1.0,7.0,86,0.00,,,0.00,meteohub,2013-03-02 18:09:00,
2013-03-02 13:14:00,22.6,19.0,30.05,ENE,74,4.0,7.0,86,0.00,,,0.00,meteohub,2013-03-02 18:14:00,
2013-03-02 13:19:00,22.8,19.2,30.04,NNW,337,2.0,7.0,86,0.00,,,0.00,meteohub,2013-03-02 18:19:00,
2013-03-02 13:24:00,22.8,19.2,30.04,NNW,343,4.0,7.0,86,0.00,,,0.00,meteohub,2013-03-02 18:24:00,
2013-03-02 13:30:00,22.8,19.0,30.04,NNE,32,3.0,8.0,85,0.00,,,0.00,meteohub,2013-03-02 18:30:00,
2013-03-02 13:35:00,22.8,19.0,30.04,North,9,4.0,11.0,85,0.00,,,0.00,meteohub,2013-03-02 18:35:00,
2013-03-02 13:40:00,23.0,19.2,30.04,NE,54,2.0,11.0,85,0.00,,,0.00,meteohub,2013-03-02 18:40:00,
2013-03-02 13:45:00,23.0,18.9,30.04,NNE,24,3.0,11.0,84,0.00,,,0.00,meteohub,2013-03-02 18:45:00,
2013-03-02 13:50:00,22.8,19.0,30.04,NNW,340,3.0,10.0,85,0.00,,,0.00,meteohub,2013-03-02 18:50:00,
2013-03-02 13:55:00,23.2,19.4,30.04,NE,41,5.0,10.0,85,0.00,,,0.00,meteohub,2013-03-02 18:55:00,
2013-03-02 14:00:00,23.2,19.4,30.04,NNW,343,4.0,10.0,85,0.00,,,0.00,meteohub,2013-03-02 19:00:00,
2013-03-02 14:05:00,23.2,19.4,30.04,NNE,30,7.0,10.0,85,0.00,,,0.00,meteohub,2013-03-02 19:05:00,
2013-03-02 14:10:00,23.4,19.2,30.04,North,0,5.0,9.0,84,0.00,,,0.00,meteohub,2013-03-02 19:10:00,
2013-03-02 14:15:00,23.5,19.4,30.03,North,355,2.0,10.0,84,0.00,,,0.00,meteohub,2013-03-02 19:15:00,
2013-03-02 14:21:00,23.5,19.4,30.03,NE,51,5.0,10.0,84,0.00,,,0.00,meteohub,2013-03-02 19:21:00,
2013-03-02 14:26:00,23.5,19.4,30.03,NNW,333,8.0,10.0,84,0.00,,,0.00,meteohub,2013-03-02 19:26:00,
2013-03-02 14:31:00,23.5,19.8,30.03,NE,55,4.0,9.0,85,0.00,,,0.00,meteohub,2013-03-02 19:31:00,
2013-03-02 14:36:00,23.9,20.1,30.03,North,355,3.0,9.0,85,0.00,,,0.00,meteohub,2013-03-02 19:36:00,
2013-03-02 14:41:00,24.1,19.9,30.04,North,351,4.0,9.0,84,0.00,,,0.00,meteohub,2013-03-02 19:41:00,
2013-03-02 14:46:00,24.1,19.9,30.04,NE,48,6.0,9.0,84,0.00,,,0.00,meteohub,2013-03-02 19:46:00,
2013-03-02 14:51:00,23.9,19.8,30.04,NE,48,2.0,9.0,84,0.00,,,0.00,meteohub,2013-03-02 19:51:00,
2013-03-02 14:56:00,23.7,19.6,30.03,NNW,342,5.0,10.0,84,0.00,,,0.00,meteohub,2013-03-02 19:56:00,
2013-03-02 15:01:00,23.7,19.9,30.03,NNW,339,5.0,10.0,85,0.00,,,0.00,meteohub,2013-03-02 20:01:00,
2013-03-02 15:06:00,23.7,19.9,30.03,NNE,14,1.0,9.0,85,0.00,,,0.00,meteohub,2013-03-02 20:06:00,
2013-03-02 15:11:00,23.9,20.1,30.03,NE,49,3.0,9.0,85,0.00,,,0.00,meteohub,2013-03-02 20:11:00,
2013-03-02 15:17:00,23.7,20.1,30.03,North,0,6.0,10.0,86,0.00,,,0.00,meteohub,2013-03-02 20:17:00,
2013-03-02 15:22:00,23.7,20.5,30.03,North,351,6.0,10.0,87,0.00,,,0.00,meteohub,2013-03-02 20:22:00,
2013-03-02 15:27:00,23.7,20.1,30.03,North,9,3.0,10.0,86,0.00,,,0.00,meteohub,2013-03-02 20:27:00,
2013-03-02 15:32:00,23.5,20.3,30.03,NNW,327,4.0,12.0,87,0.00,,,0.00,meteohub,2013-03-02 20:32:00,
2013-03-02 15:37:00,23.5,20.3,30.03,NNW,348,3.0,12.0,87,0.00,,,0.00,meteohub,2013-03-02 20:37:00,
2013-03-02 15:42:00,23.5,20.3,30.03,NNE,18,2.0,12.0,87,0.00,,,0.00,meteohub,2013-03-02 20:42:00,
2013-03-02 15:47:00,23.7,20.7,30.03,NNW,342,5.0,10.0,88,0.00,,,0.00,meteohub,2013-03-02 20:47:00,
2013-03-02 15:52:00,23.7,20.7,30.03,North,355,4.0,9.0,88,0.00,,,0.00,meteohub,2013-03-02 20:52:00,
2013-03-02 15:57:00,23.9,20.8,30.03,NW,325,5.0,10.0,88,0.00,,,0.00,meteohub,2013-03-02 20:57:00,
2013-03-02 16:02:00,23.7,20.7,30.03,NNE,19,0.0,10.0,88,0.00,,,0.00,meteohub,2013-03-02 21:02:00,
2013-03-02 16:07:00,23.9,20.8,30.04,NNW,343,3.0,10.0,88,0.00,,,0.00,meteohub,2013-03-02 21:07:00,
2013-03-02 16:12:00,23.9,20.8,30.04,NNE,18,4.0,7.0,88,0.00,,,0.00,meteohub,2013-03-02 21:12:00,
2013-03-02 16:17:00,23.9,21.2,30.03,NNW,333,5.0,9.0,89,0.00,,,0.00,meteohub,2013-03-02 21:17:00,
2013-03-02 16:22:00,23.9,21.2,30.03,NW,314,5.0,9.0,89,0.00,,,0.00,meteohub,2013-03-02 21:22:00,
2013-03-02 16:27:00,23.9,21.2,30.03,NE,36,3.0,9.0,89,0.00,,,0.00,meteohub,2013-03-02 21:27:00,
2013-03-02 16:32:00,23.9,21.2,30.03,NW,323,4.0,8.0,89,0.00,,,0.00,meteohub,2013-03-02 21:32:00,
2013-03-02 16:37:00,24.1,21.6,30.03,NNW,346,1.0,8.0,90,0.00,,,0.00,meteohub,2013-03-02 21:37:00,
2013-03-02 16:42:00,24.1,21.6,30.03,North,355,5.0,8.0,90,0.00,,,0.00,meteohub,2013-03-02 21:42:00,
2013-03-02 16:47:00,24.1,21.4,30.03,North,355,2.0,8.0,89,0.00,,,0.00,meteohub,2013-03-02 21:47:00,
2013-03-02 16:52:00,24.3,21.7,30.03,NNW,342,0.0,8.0,90,0.00,,,0.00,meteohub,2013-03-02 21:52:00,
2013-03-02 16:58:00,24.3,21.7,30.03,NE,39,1.0,8.0,90,0.00,,,0.00,meteohub,2013-03-02 21:58:00,
2013-03-02 17:03:00,24.3,21.7,30.03,NNW,342,3.0,8.0,90,0.00,,,0.00,meteohub,2013-03-02 22:03:00,
2013-03-02 17:08:00,24.4,21.9,30.03,NNW,342,5.0,9.0,90,0.00,,,0.00,meteohub,2013-03-02 22:08:00,
2013-03-02 17:13:00,24.4,21.9,30.03,NNW,346,3.0,10.0,90,0.00,,,0.00,meteohub,2013-03-02 22:13:00,
2013-03-02 17:18:00,24.4,21.9,30.03,North,355,9.0,10.0,90,0.00,,,0.00,meteohub,2013-03-02 22:18:00,
2013-03-02 17:23:00,24.4,21.9,30.03,NNE,13,4.0,10.0,90,0.00,,,0.00,meteohub,2013-03-02 22:23:00,
2013-03-02 17:28:00,24.4,21.9,30.03,NE,42,3.0,10.0,90,0.00,,,0.00,meteohub,2013-03-02 22:28:00,
2013-03-02 17:33:00,24.4,21.9,30.03,WNW,296,1.0,10.0,90,0.00,,,0.00,meteohub,2013-03-02 22:33:00,
2013-03-02 17:38:00,24.4,21.9,30.03,NNW,343,2.0,7.0,90,0.00,,,0.00,meteohub,2013-03-02 22:38:00,
2013-03-02 17:43:00,24.4,21.9,30.04,North,0,6.0,8.0,90,0.00,,,0.00,meteohub,2013-03-02 22:43:00,
2013-03-02 17:48:00,24.4,21.9,30.04,East,80,3.0,8.0,90,0.00,,,0.00,meteohub,2013-03-02 22:48:00,
2013-03-02 17:54:00,24.4,21.9,30.04,NW,311,3.0,10.0,90,0.00,,,0.00,meteohub,2013-03-02 22:54:00,
2013-03-02 17:59:00,24.4,21.9,30.04,NW,315,3.0,10.0,90,0.00,,,0.00,meteohub,2013-03-02 22:59:00,
2013-03-02 18:04:00,24.4,21.9,30.04,NW,319,5.0,8.0,90,0.00,,,0.00,meteohub,2013-03-02 23:04:00,
2013-03-02 18:09:00,24.4,21.9,30.04,NW,323,4.0,8.0,90,0.00,,,0.00,meteohub,2013-03-02 23:09:00,
2013-03-02 18:14:00,24.3,21.7,30.04,North,5,3.0,9.0,90,0.00,,,0.00,meteohub,2013-03-02 23:14:00,
2013-03-02 18:20:00,24.4,21.9,30.04,NE,36,2.0,9.0,90,0.00,,,0.00,meteohub,2013-03-02 23:20:00,
2013-03-02 18:25:00,24.3,21.7,30.04,NE,37,3.0,10.0,90,0.00,,,0.00,meteohub,2013-03-02 23:25:00,
2013-03-02 18:30:00,24.3,21.7,30.04,North,0,2.0,13.0,90,0.00,,,0.00,meteohub,2013-03-02 23:30:00,
2013-03-02 18:35:00,24.3,21.7,30.04,North,5,6.0,13.0,90,0.00,,,0.00,meteohub,2013-03-02 23:35:00,
2013-03-02 18:40:00,24.3,22.1,30.04,NNE,24,1.0,13.0,91,0.00,,,0.00,meteohub,2013-03-02 23:40:00,
2013-03-02 18:45:00,24.3,22.1,30.04,North,0,3.0,10.0,91,0.00,,,0.00,meteohub,2013-03-02 23:45:00,
2013-03-02 18:50:00,24.3,22.1,30.04,NNW,341,4.0,8.0,91,0.00,,,0.00,meteohub,2013-03-02 23:50:00,
2013-03-02 18:55:00,24.3,22.1,30.04,NE,36,2.0,10.0,91,0.00,,,0.00,meteohub,2013-03-02 23:55:00,
2013-03-02 19:00:00,24.3,22.1,30.04,North,355,2.0,10.0,91,0.00,,,0.00,meteohub,2013-03-03 00:00:00,
2013-03-02 19:06:00,24.1,21.9,30.04,North,0,4.0,10.0,91,0.00,,,0.00,meteohub,2013-03-03 00:06:00,
2013-03-02 19:11:00,24.1,21.9,30.04,NNE,25,4.0,8.0,91,0.00,,,0.00,meteohub,2013-03-03 00:11:00,
2013-03-02 19:16:00,24.1,21.6,30.04,North,0,5.0,9.0,90,0.00,,,0.00,meteohub,2013-03-03 00:16:00,
2013-03-02 19:21:00,24.1,21.6,30.04,NNW,346,5.0,10.0,90,0.00,,,0.00,meteohub,2013-03-03 00:21:00,
2013-03-02 19:26:00,24.1,21.9,30.04,NE,44,2.0,12.0,91,0.00,,,0.00,meteohub,2013-03-03 00:26:00,
2013-03-02 19:31:00,24.1,21.9,30.04,NNE,15,2.0,12.0,91,0.00,,,0.00,meteohub,2013-03-03 00:31:00,
2013-03-02 19:37:00,24.1,21.9,30.04,NNW,341,4.0,12.0,91,0.00,,,0.00,meteohub,2013-03-03 00:37:00,
2013-03-02 19:42:00,24.1,21.9,30.04,NNW,347,3.0,11.0,91,0.00,,,0.00,meteohub,2013-03-03 00:42:00,
2013-03-02 19:47:00,24.1,21.9,30.05,NW,306,4.0,9.0,91,0.00,,,0.00,meteohub,2013-03-03 00:47:00,
2013-03-02 19:52:00,23.9,21.7,30.04,NNE,15,2.0,10.0,91,0.00,,,0.00,meteohub,2013-03-03 00:52:00,
2013-03-02 19:57:00,24.1,21.9,30.04,NE,55,6.0,10.0,91,0.00,,,0.00,meteohub,2013-03-03 00:57:00,
2013-03-02 20:02:00,23.9,21.7,30.04,NE,43,5.0,10.0,91,0.00,,,0.00,meteohub,2013-03-03 01:02:00,
2013-03-02 20:07:00,23.9,21.4,30.04,NNE,20,4.0,11.0,90,0.00,,,0.00,meteohub,2013-03-03 01:07:00,
2013-03-02 20:13:00,23.9,21.4,30.04,NNE,28,6.0,11.0,90,0.00,,,0.00,meteohub,2013-03-03 01:13:00,
2013-03-02 20:18:00,23.9,21.4,30.05,NNE,27,0.0,11.0,90,0.00,,,0.00,meteohub,2013-03-03 01:18:00,
2013-03-02 20:23:00,23.9,21.4,30.05,ENE,78,3.0,11.0,90,0.00,,,0.00,meteohub,2013-03-03 01:23:00,
2013-03-02 20:28:00,23.9,21.4,30.05,North,350,4.0,12.0,90,0.00,,,0.00,meteohub,2013-03-03 01:28:00,
2013-03-02 20:33:00,23.9,21.4,30.05,NNE,27,5.0,12.0,90,0.00,,,0.00,meteohub,2013-03-03 01:33:00,
2013-03-02 20:38:00,23.9,21.4,30.05,NE,49,1.0,11.0,90,0.00,,,0.00,meteohub,2013-03-03 01:38:00,
2013-03-02 20:43:00,23.7,21.2,30.05,NE,44,3.0,9.0,90,0.00,,,0.00,meteohub,2013-03-03 01:43:00,
2013-03-02 20:48:00,23.7,21.2,30.05,North,350,5.0,10.0,90,0.00,,,0.00,meteohub,2013-03-03 01:48:00,
2013-03-02 20:54:00,23.7,21.2,30.05,NNW,341,5.0,10.0,90,0.00,,,0.00,meteohub,2013-03-03 01:54:00,
2013-03-02 20:59:00,23.7,21.6,30.05,NW,324,5.0,11.0,91,0.00,,,0.00,meteohub,2013-03-03 01:59:00,
2013-03-02 21:04:00,23.7,21.6,30.05,NNE,32,5.0,11.0,91,0.00,,,0.00,meteohub,2013-03-03 02:04:00,
2013-03-02 21:09:00,23.7,21.6,30.05,ENE,65,0.0,11.0,91,0.00,,,0.00,meteohub,2013-03-03 02:09:00,
2013-03-02 21:14:00,23.7,21.6,30.05,East,85,2.0,9.0,91,0.00,,,0.00,meteohub,2013-03-03 02:14:00,
2013-03-02 21:19:00,23.7,21.6,30.05,ENE,57,1.0,8.0,91,0.00,,,0.00,meteohub,2013-03-03 02:19:00,
2013-03-02 21:24:00,23.7,21.6,30.05,NE,53,2.0,8.0,91,0.00,,,0.00,meteohub,2013-03-03 02:24:00,
2013-03-02 21:29:00,23.7,21.6,30.06,NNE,33,1.0,5.0,91,0.00,,,0.00,meteohub,2013-03-03 02:29:00,
2013-03-02 21:34:00,23.7,21.6,30.05,ENE,57,2.0,6.0,91,0.00,,,0.00,meteohub,2013-03-03 02:34:00,
2013-03-02 21:40:00,23.7,21.6,30.05,NNE,15,2.0,6.0,91,0.00,,,0.00,meteohub,2013-03-03 02:40:00,
2013-03-02 21:45:00,23.7,21.7,30.05,ENE,72,2.0,7.0,92,0.00,,,0.00,meteohub,2013-03-03 02:45:00,
2013-03-02 21:50:00,23.7,21.7,30.05,NNE,17,2.0,7.0,92,0.00,,,0.00,meteohub,2013-03-03 02:50:00,
2013-03-02 21:55:00,23.7,21.7,30.05,North,355,3.0,7.0,92,0.00,,,0.00,meteohub,2013-03-03 02:55:00,
2013-03-02 22:00:00,23.7,21.7,30.05,NE,40,3.0,7.0,92,0.00,,,0.00,meteohub,2013-03-03 03:00:00,
2013-03-02 22:06:00,23.7,21.7,30.05,NNW,338,0.0,9.0,92,0.00,,,0.00,meteohub,2013-03-03 03:06:00,
2013-03-02 22:11:00,23.7,21.7,30.05,NNE,13,0.0,9.0,92,0.00,,,0.00,meteohub,2013-03-03 03:11:00,
2013-03-02 22:16:00,23.7,21.7,30.05,NNE,25,2.0,8.0,92,0.00,,,0.00,meteohub,2013-03-03 03:16:00,
2013-03-02 22:21:00,23.7,21.7,30.05,NE,53,3.0,7.0,92,0.00,,,0.00,meteohub,2013-03-03 03:21:00,
2013-03-02 22:26:00,23.7,21.7,30.05,NW,325,9.0,10.0,92,0.00,,,0.00,meteohub,2013-03-03 03:26:00,
2013-03-02 22:31:00,23.7,21.7,30.05,NW,325,2.0,10.0,92,0.00,,,0.00,meteohub,2013-03-03 03:31:00,
2013-03-02 22:36:00,23.5,21.6,30.05,NE,44,2.0,10.0,92,0.00,,,0.00,meteohub,2013-03-03 03:36:00,
2013-03-02 22:42:00,23.5,21.6,30.05,NE,45,1.0,13.0,92,0.00,,,0.00,meteohub,2013-03-03 03:42:00,
2013-03-02 22:47:00,23.5,21.6,30.05,North,355,9.0,13.0,92,0.00,,,0.00,meteohub,2013-03-03 03:47:00,
2013-03-02 22:52:00,23.5,21.6,30.05,NE,34,7.0,13.0,92,0.00,,,0.00,meteohub,2013-03-03 03:52:00,
2013-03-02 22:57:00,23.5,21.6,30.05,NNE,29,0.0,12.0,92,0.00,,,0.00,meteohub,2013-03-03 03:57:00,
2013-03-02 23:02:00,23.4,21.2,30.05,NNE,22,2.0,12.0,91,0.00,,,0.00,meteohub,2013-03-03 04:02:00,
2013-03-02 23:07:00,23.4,21.2,30.05,NNW,342,3.0,12.0,91,0.00,,,0.00,meteohub,2013-03-03 04:07:00,
2013-03-02 23:12:00,23.4,21.2,30.04,ENE,58,4.0,11.0,91,0.00,,,0.00,meteohub,2013-03-03 04:12:00,
2013-03-02 23:17:00,23.4,21.2,30.04,NW,325,0.0,11.0,91,0.00,,,0.00,meteohub,2013-03-03 04:17:00,
2013-03-02 23:22:00,23.4,21.2,30.04,NE,34,2.0,9.0,91,0.00,,,0.00,meteohub,2013-03-03 04:22:00,
2013-03-02 23:27:00,23.4,21.2,30.04,NNE,15,2.0,9.0,91,0.00,,,0.00,meteohub,2013-03-03 04:27:00,
2013-03-02 23:32:00,23.4,21.2,30.04,North,349,6.0,7.0,91,0.00,,,0.00,meteohub,2013-03-03 04:32:00,
2013-03-02 23:37:00,23.4,21.2,30.04,NE,46,5.0,9.0,91,0.00,,,0.00,meteohub,2013-03-03 04:37:00,
2013-03-02 23:42:00,23.2,21.0,30.04,NNW,329,4.0,9.0,91,0.00,,,0.00,meteohub,2013-03-03 04:42:00,
2013-03-02 23:47:00,23.2,21.0,30.04,East,92,2.0,9.0,91,0.00,,,0.00,meteohub,2013-03-03 04:47:00,
2013-03-02 23:53:00,22.8,20.7,30.04,NNW,339,8.0,14.0,91,0.00,,,0.00,meteohub,2013-03-03 04:53:00,
2013-03-02 23:58:00,22.8,20.7,30.04,NNW,334,3.0,14.0,91,0.00,,,0.00,meteohub,2013-03-03 04:58:00,